Lid_Strength_Index
10 9 9 9 9 9 9 8 8 8 7 6 6 5 4 3 1 0 1 1 1 1
11 11 10 10 10 10 10 10 10 9 8 8 7 6 6 4 4 3 2 1 1 1
12 12 12 11 12 12 11 11 11 10 9 8 8 7 7 6 5 5 4 3 5 4
13 13 13 13 13 13 12 12 12 11 10 10 9 8 7 7 6 6 6 6 6 6
14 14 14 14 14 13 14 13 13 13 12 12 11 10 9 8 8 8 8 8 7 7
15 15 15 15 15 14 14 14 14 13 13 13 12 11 10 10 10 9 8 8 8 8
16 16 16 15 15 15 15 15 14 14 14 13 13 11 12 11 11 11 10 10 9 8
16 16 16 16 16 15 15 15 14 14 14 13 12 12 12 11 11 11 10 10 9 8
17 17 18 17 16 16 15 15 14 13 13 12 12 11 11 11 11 10 10 10 9 8
17 18 17 17 16 16 15 14 14 13 12 13 12 11 11 11 11 11 10 10 10 10
18 18 17 17 16 16 15 14 14 13 13 14 13 12 12 12 12 12 12 11 11 10
19 19 18 17 17 16 15 14 14 14 14 14 14 13 12 12 13 13 13 12 12 11
19 18 18 17 17 16 15 15 14 15 15 15 15 14 13 13 13 14 15 14 13 12
19 18 18 17 17 16 16 16 16 16 16 16 15 15 13 13 14 15 15 15 15 14